This demonstration page uses our WeatherBlox Daily Observations layout. Learn more.

Left ArrowRight Arrow

Hourly Observations for June 21, 2021

Temp ( °F °C ) Dew Point ( °F °C ) Humidity (%) Winds ( mph kmh ) Pressure ( in mb ) Visibility ( mi km ) Precip ( " mm )
12:15 am 00:15 Partly Cloudy 77 25 75 24 94 94 S 9 15 29.61 1003 10 16 N/A
12:35 am 00:35 Partly Cloudy 77 25 75 24 94 94 S 13 20 29.61 1003 10 16 N/A
12:55 am 00:55 Partly Cloudy 77 25 75 24 94 94 S 10 17 29.60 1002 10 16 N/A
1:15 am 01:15 Partly Cloudy 75 24 75 24 100 100 S 9 15 29.61 1003 10 16 N/A
1:35 am 01:35 Clear 75 24 75 24 100 100 S 12 19 29.61 1003 10 16 N/A
1:55 am 01:55 Clear 77 25 75 24 94 94 SSW 10 17 29.61 1003 10 16 N/A
2:15 am 02:15 Partly Cloudy 77 25 75 24 94 94 SSW 12 19 29.62 1003 10 16 N/A
2:35 am 02:35 Clear 77 25 75 24 94 94 SSW 10 17 29.61 1003 10 16 N/A
2:55 am 02:55 Clear 77 25 75 24 94 94 SSW 14 22 29.60 1002 10 16 N/A
3:15 am 03:15 Partly Cloudy 77 25 75 24 94 94 SSW 14 22 29.58 1002 10 16 N/A
3:35 am 03:35 Clear 77 25 75 24 94 94 SSW 15 24 29.57 1001 10 16 N/A
3:55 am 03:55 Clear 77 25 73 23 89 89 SSW 13 20 29.58 1002 10 16 N/A
4:15 am 04:15 Mostly Cloudy 79 26 73 23 84 84 SW 15 24 29.59 1002 10 16 N/A
4:35 am 04:35 Cloudy 79 26 73 23 84 84 SW 16 26 29.58 1002 10 16 N/A
4:55 am 04:55 Mostly Cloudy 75 24 75 24 100 100 SSW 12 19 29.58 1002 10 16 N/A
5:15 am 05:15 Partly Cloudy N/A N/A N/A SW 10 17 N/A 10 16 N/A
5:35 am 05:35 Partly Cloudy 75 24 75 24 100 100 SW 9 15 29.60 1002 10 16 N/A
5:55 am 05:55 Mostly Cloudy 75 24 75 24 100 100 SW 10 17 29.61 1003 10 16 N/A
6:15 am 06:15 Partly Cloudy 75 24 75 24 100 100 SW 12 19 29.60 1002 10 16 N/A
6:35 am 06:35 Sunny 75 24 75 24 100 100 SW 15 24 29.61 1003 10 16 N/A
6:55 am 06:55 Partly Cloudy 75 24 75 24 100 100 WSW 17 28 29.61 1003 10 16 N/A
7:15 am 07:15 Mostly Cloudy 75 24 75 24 100 100 SW 15 24 29.62 1003 10 16 N/A
7:35 am 07:35 Mostly Cloudy 75 24 75 24 100 100 WSW 15 24 29.62 1003 10 16 N/A
7:55 am 07:55 Partly Cloudy 75 24 75 24 100 100 SW 10 17 29.62 1003 10 16 N/A
8:15 am 08:15 Partly Cloudy 75 24 73 23 94 94 SW 13 20 29.62 1003 10 16 N/A
8:35 am 08:35 Mostly Cloudy 75 24 73 23 94 94 WSW 15 24 29.63 1003 10 16 N/A
8:55 am 08:55 Cloudy 75 24 73 23 94 94 WSW 15 24 29.64 1004 10 16 N/A
9:15 am 09:15 Cloudy 73 23 73 23 100 100 W 16 26 29.66 1004 10 16 N/A
9:35 am 09:35 Cloudy 73 23 73 23 100 100 W 14 22 29.66 1004 10 16 N/A
9:55 am 09:55 Cloudy 73 23 73 23 100 100 W 17 28 29.68 1005 10 16 N/A
10:15 am 10:15 Cloudy 70 21 70 21 100 100 W 16 26 29.70 1006 10 16 N/A
10:35 am 10:35 Cloudy 72 22 70 21 94 94 W 14 22 29.69 1005 10 16 N/A
10:55 am 10:55 Cloudy 70 21 70 21 100 100 WNW 13 20 29.71 1006 10 16 N/A
11:15 am 11:15 Cloudy 70 21 70 21 100 100 W 14 22 29.72 1006 10 16 N/A
11:35 am 11:35 Cloudy 70 21 70 21 100 100 W 10 17 29.73 1007 10 16 N/A
11:55 am 11:55 Cloudy 73 23 70 21 89 89 W 12 19 29.72 1006 10 16 N/A
12:15 pm 12:15 Cloudy 73 23 70 21 89 89 W 12 19 29.72 1006 10 16 N/A
12:35 pm 12:35 Mostly Cloudy 75 24 70 21 83 83 W 16 26 29.72 1006 10 16 N/A
12:55 pm 12:55 Mostly Cloudy 75 24 68 20 78 78 W 17 28 29.71 1006 10 16 N/A
1:15 pm 13:15 Mostly Cloudy 75 24 68 20 78 78 W 17 28 29.71 1006 10 16 N/A
1:35 pm 13:35 Mostly Cloudy 77 25 70 21 79 79 W 18 30 29.69 1006 10 16 N/A
1:55 pm 13:55 Mostly Cloudy 75 24 66 19 74 74 WNW 16 26 29.70 1006 10 16 N/A
2:15 pm 14:15 Mostly Cloudy 73 23 66 19 78 78 NW 18 30 29.70 1006 10 16 N/A
2:35 pm 14:35 Cloudy 73 23 64 18 74 74 NW 17 28 29.70 1006 10 16 N/A
2:55 pm 14:55 Cloudy 73 23 64 18 74 74 WNW 18 30 29.70 1006 10 16 N/A
3:15 pm 15:15 Mostly Cloudy 73 23 64 18 74 74 WNW 17 28 29.73 1007 10 16 N/A
3:35 pm 15:35 Cloudy 72 22 63 17 73 73 WNW 15 24 29.74 1007 10 16 N/A
3:55 pm 15:55 Mostly Cloudy 72 22 63 17 73 73 NW 12 19 29.74 1007 10 16 N/A
4:15 pm 16:15 Mostly Cloudy 70 21 63 17 78 78 NW 10 17 29.74 1007 10 16 N/A
4:35 pm 16:35 Cloudy 70 21 61 16 73 73 NW 10 17 29.76 1008 10 16 N/A
4:55 pm 16:55 Cloudy 68 20 63 17 83 83 NW 13 20 29.77 1008 10 16 N/A
5:15 pm 17:15 Cloudy 68 20 61 16 78 78 WNW 13 20 29.79 1009 10 16 N/A
5:35 pm 17:35 Cloudy 66 19 63 17 88 88 W 10 17 29.81 1010 10 16 N/A
5:55 pm 17:55 Cloudy 66 19 63 17 88 88 N N/A 29.82 1010 10 16 N/A
6:15 pm 18:15 Cloudy 66 19 63 17 88 88 W 8 13 29.80 1009 10 16 N/A
6:35 pm 18:35 Cloudy 66 19 63 17 88 88 W 10 17 29.79 1009 10 16 N/A
6:55 pm 18:55 Cloudy 66 19 63 17 88 88 W 8 13 29.78 1009 10 16 N/A
7:15 pm 19:15 Cloudy 66 19 63 17 88 88 WNW 7 11 29.77 1008 10 16 N/A
7:35 pm 19:35 Mostly Cloudy 66 19 63 17 88 88 WNW 9 15 29.77 1008 10 16 N/A
7:55 pm 19:55 Partly Cloudy 66 19 61 16 83 83 WNW 13 20 29.77 1008 10 16 N/A
8:15 pm 20:15 Sunny 66 19 61 16 83 83 WNW 9 15 29.78 1009 10 16 N/A
8:35 pm 20:35 Sunny 66 19 61 16 83 83 N N/A 29.80 1009 10 16 N/A
8:55 pm 20:55 Sunny 66 19 61 16 83 83 N N/A 29.81 1010 10 16 N/A
9:15 pm 21:15 Sunny 66 19 61 16 83 83 N N/A 29.82 1010 10 16 N/A
9:35 pm 21:35 Clear 64 18 61 16 88 88 W 8 13 29.82 1010 10 16 N/A
9:55 pm 21:55 Clear 64 18 61 16 88 88 N N/A 29.83 1010 10 16 N/A
10:15 pm 22:15 Mostly Cloudy 63 17 61 16 94 94 N N/A 29.84 1010 10 16 N/A
10:35 pm 22:35 Cloudy 63 17 63 17 100 100 N N/A 29.85 1011 10 16 N/A
10:55 pm 22:55 Cloudy 64 18 63 17 94 94 N N/A 29.85 1011 10 16 N/A
11:15 pm 23:15 Cloudy 64 18 63 17 94 94 WNW 8 13 29.87 1012 10 16 N/A
11:35 pm 23:35 Cloudy 64 18 63 17 94 94 N N/A 29.87 1012 10 16 N/A
11:55 pm 23:55 Cloudy 64 18 59 15 83 83 NNW 12 19 29.88 1012 10 16 N/A

Powered by AerisWeather